User: anonymous   Login
Location: Caltech
(34.1382°N, 118.1253°W)
Time: 06:25:54
(UTC-08:00)
Language:

TITAN 4B R/B - Orbit

View from above orbital plane
View from above orbital plane
View from above satellite
View from above satellite

Ground track
Ground track

The orbit data is extracted from the following two-line orbital elements,

1 28647U 05016B   15020.73615176 0.00003000  00000-0  18547-3 0    07
2 28647  56.9986 336.3401 0137488 184.6796 175.3203 15.01789997    01
Epoch (UTC): 20 January 2015 17:40:03
Eccentricity: 0.0137488
inclination: 56.9986°
perigee height: 466 km
apogee height: 657 km
right ascension of ascending node: 336.3401°
argument of perigee: 184.6796°
revolutions per day: 15.01789997
mean anomaly at epoch: 175.3203°
orbit number at epoch: 0

The dashed part of the orbit path shows where the satellite is in the earth's shadow,  

DLR